VA7NIC-10 Weather Reports


time (UTC)temp
C
wind
direction
speed
KPH
gust
KPH
rain 1hr
cm
rain 24hr
cm
rain mn
cm
humidity
%
barometer
mb
20260506102202 11 359 0.0 0.0 0.00 0.00 0.00 86 1016.3
20260506100702 11 359 0.0 0.0 0.00 0.00 0.00 87 1016.1
20260506095202 11 359 0.0 0.0 0.00 0.00 0.00 87 1015.9
20260506093701 11 359 0.0 0.0 0.00 0.00 0.00 87 1016.0
20260506092201 11 359 0.0 0.0 0.00 0.00 0.00 87 1016.0
20260506090701 10 359 0.0 0.0 0.00 0.00 0.00 88 1015.9
20260506085201 10 359 0.0 0.0 0.00 0.00 0.00 87 1015.6
20260506083701 10 359 0.0 0.0 0.00 0.00 0.00 87 1015.5
20260506082201 11 359 0.0 0.0 0.00 0.00 0.00 87 1015.5
20260506080701 11 359 0.0 0.0 0.00 0.00 0.00 86 1015.4
20260506072202 11 359 0.0 0.0 0.00 0.00 0.00 86 1015.0
20260506070702 11 359 0.0 0.0 0.00 0.00 0.00 85 1014.9
20260506062202 12 359 0.0 0.0 0.00 0.00 0.00 84 1014.6
20260506060701 12 359 0.0 0.0 0.00 0.00 0.00 83 1014.6
20260506050701 13 359 0.0 0.0 0.00 0.00 0.00 80 1014.0
20260506043701 13 359 0.0 0.0 0.00 0.00 0.00 77 1013.8
20260506042201 14 359 0.0 0.0 0.00 0.00 0.00 76 1013.5
20260506040701 15 359 0.0 0.0 0.00 0.00 0.00 75 1013.3
20260506035201 15 359 0.0 0.0 0.00 0.00 0.00 74 1013.0
20260506033702 15 359 0.0 0.0 0.00 0.00 0.00 72 1012.9
20260506032202 16 359 0.0 0.0 0.00 0.00 0.00 70 1012.8
20260506030702 16 359 0.0 0.0 0.00 0.00 0.00 68 1012.5
20260506025202 17 359 0.0 0.0 0.00 0.00 0.00 68 1012.3
20260506023701 17 359 0.0 0.0 0.00 0.00 0.00 67 1012.2
20260506022201 18 359 0.0 0.0 0.00 0.00 0.00 65 1012.1
20260506020701 18 359 0.0 0.0 0.00 0.00 0.00 65 1012.0
20260506015201 18 359 0.0 0.0 0.00 0.00 0.00 65 1011.9
20260506013701 18 359 0.0 0.0 0.00 0.00 0.00 65 1012.0
20260506012201 19 359 0.0 0.0 0.00 0.00 0.00 64 1012.0
20260506010701 19 359 0.0 0.0 0.00 0.00 0.00 64 1012.0
20260506005201 20 359 0.0 0.0 0.00 0.00 0.00 64 1012.2
20260506003701 20 359 0.0 0.0 0.00 0.00 0.00 63 1012.1
20260506002201 20 359 0.0 0.0 0.00 0.00 0.00 62 1012.1
20260506000701 20 359 0.0 1.6 0.00 0.00 0.00 62 1012.2
20260505235202 20 359 0.0 0.0 0.00 0.00 0.00 62 1012.3
20260505233702 20 5 0.0 0.0 0.00 0.00 0.00 61 1012.3
20260505232202 21 15 0.0 0.0 0.00 0.00 0.00 62 1012.3
20260505230702 21 356 0.0 0.0 0.00 0.00 0.00 60 1012.4
20260505225202 21 359 0.0 0.0 0.00 0.00 0.00 62 1012.6
20260505223701 21 359 0.0 0.0 0.00 0.00 0.00 62 1012.7
20260505222201 21 359 0.0 0.0 0.00 0.00 0.00 62 1012.7
20260505220701 21 359 0.0 0.0 0.00 0.00 0.00 63 1012.8
20260505215201 20 359 0.0 0.0 0.00 0.00 0.00 63 1012.9
20260505213701 20 359 0.0 0.0 0.00 0.00 0.00 63 1013.1
20260505212201 20 359 0.0 0.0 0.00 0.00 0.00 60 1013.1
20260505210701 21 359 0.0 0.0 0.00 0.00 0.00 58 1013.3
20260505205201 21 359 0.0 0.0 0.00 0.00 0.00 61 1013.3
20260505203701 21 359 0.0 1.6 0.00 0.00 0.00 60 1013.5
20260505202201 19 359 0.0 0.0 0.00 0.00 0.00 66 1013.5
20260505200702 18 359 0.0 0.0 0.00 0.00 0.00 68 1013.6
20260505195202 18 359 0.0 0.0 0.00 0.00 0.00 68 1013.7
20260505193702 18 359 0.0 0.0 0.00 0.00 0.00 70 1013.8
20260505192202 18 359 0.0 0.0 0.00 0.00 0.00 71 1013.8
20260505190701 17 359 0.0 0.0 0.00 0.00 0.00 72 1013.9
20260505185202 17 359 0.0 0.0 0.00 0.00 0.00 73 1014.0
20260505183701 16 359 0.0 0.0 0.00 0.00 0.00 76 1014.1
20260505182201 16 359 0.0 0.0 0.00 0.00 0.00 78 1014.0
20260505180701 15 359 0.0 0.0 0.00 0.00 0.00 81 1014.0
20260505175201 14 359 0.0 0.0 0.00 0.00 0.00 82 1014.2
20260505173701 13 359 0.0 0.0 0.00 0.00 0.00 84 1014.2
20260505172201 13 359 0.0 0.0 0.00 0.00 0.00 85 1014.2
20260505170701 12 359 0.0 0.0 0.00 0.00 0.00 86 1014.2
20260505165201 12 359 0.0 0.0 0.00 0.00 0.00 86 1014.2
20260505163701 12 359 0.0 0.0 0.00 0.00 0.00 86 1014.2
20260505162202 12 359 0.0 0.0 0.00 0.00 0.00 86 1014.1
20260505160702 12 359 0.0 0.0 0.00 0.00 0.00 87 1014.0
20260505152202 11 359 0.0 0.0 0.00 0.00 0.00 87 1013.7
20260505150701 11 359 0.0 0.0 0.00 0.00 0.00 88 1013.5
20260505123702 10 359 0.0 0.0 0.00 0.00 0.00 88 1012.2
20260505122202 10 359 0.0 0.0 0.00 0.00 0.00 88 1012.2
20260505120702 10 359 0.0 0.0 0.00 0.00 0.00 88 1012.1
20260505115202 10 359 0.0 0.0 0.00 0.00 0.00 88 1012.0
20260505113701 11 359 0.0 0.0 0.00 0.00 0.00 88 1011.9
20260505112201 11 359 0.0 0.0 0.00 0.00 0.00 88 1011.8
20260505110701 11 359 0.0 0.0 0.00 0.00 0.00 88 1011.8